User: anonymous   Login
Location: Taipo
(41.0000°S, 175.9500°E)
Time: 16:19:25
(UTC+00:00)
Language:

Cosmos 2082 Rocket - Orbit

View from above orbital plane
View from above orbital plane
View from above satellite
View from above satellite

Ground track
Ground track

The orbit data is extracted from the following two-line orbital elements,

1 20625U 90046B   24165.77213215 -.00000217  00000-0 -87724-4 0  9994
2 20625  70.9973 189.0875 0014826 197.1357 162.9267 14.14837721758724
Epoch (UTC): 13 June 2024 18:31:52
Eccentricity: 0.0014826
inclination: 70.9973°
perigee height: 832 km
apogee height: 853 km
right ascension of ascending node: 189.0875°
argument of perigee: 197.1357°
revolutions per day: 14.14837721
mean anomaly at epoch: 162.9267°
orbit number at epoch: 75872

The dashed part of the orbit path shows where the satellite is in the earth's shadow,  

DLR